2017-02-20T14:17:34,19.94,32.81,27.75,22.63,19.94,12.56
2017-02-20T14:18:07,19.94,33,27.94,22.75,19.94,12.69
2017-02-20T14:18:41,19.94,33.13,28.13,22.81,20,12.63
2017-02-20T14:19:15,19.94,33.25,28.25,22.88,20.19,12.56
2017-02-20T14:19:48,19.94,33.38,28.44,23,20.13,12.56
2017-02-20T14:20:22,19.88,33.44,28.56,23,20.19,12.63
2017-02-20T14:20:56,19.81,33.56,28.69,23.06,20.31,12.63
2017-02-20T14:21:29,19.81,33.69,28.81,23.13,20.5,12.56
2017-02-20T14:22:03,19.75,33.75,28.81,23.13,20.44,12.5
2017-02-20T14:22:37,19.69,33.75,28.88,23.06,20.5,12.44
2017-02-20T14:23:10,19.56,33.75,28.94,23.13,20.5,12.38
2017-02-20T14:23:44,19.44,33.81,29,23.19,20.5,12.38
2017-02-20T14:24:18,19.38,33.88,29.06,23.25,20.56,12.31
2017-02-20T14:24:51,19.38,33.94,29.06,23.31,20.63,12.31
2017-02-20T14:25:25,19.31,33.94,29.06,23.44,20.75,12.31
2017-02-20T14:25:58,19.31,34,29,23.44,20.81,12.31
2017-02-20T14:26:32,19.31,34,29.13,23.44,20.88,12.25
2017-02-20T14:27:06,19.25,34,29.19,23.5,21.06,12.25
2017-02-20T14:27:39,19.25,34,29.25,23.44,21.13,12.25
2017-02-20T14:28:13,19.25,34.06,29.25,23.44,21.19,12.25
2017-02-20T14:28:47,19.19,34.06,29.25,23.56,21.19,12.19
2017-02-20T14:29:20,19.13,34.13,29.25,23.5,21.25,12.19
2017-02-20T14:29:54,19.06,34.13,29.31,23.5,21.31,12.19
2017-02-20T14:30:28,19.06,34.19,29.38,23.5,21.44,12.19
2017-02-20T14:31:01,19.06,34.19,29.38,23.5,21.44,12.19
2017-02-20T14:31:35,19.06,34.19,29.38,23.5,21.56,12.13
2017-02-20T14:32:08,19.06,34.13,29.44,23.5,21.69,12.13
2017-02-20T14:32:42,19,34.13,29.5,23.44,21.81,12.13
2017-02-20T14:33:16,18.94,34.13,29.5,23.44,21.88,12.13
2017-02-20T14:33:49,18.94,34.13,29.5,23.44,21.94,12.13
2017-02-20T14:34:23,19,34.19,29.44,23.44,21.94,12.13
2017-02-20T14:34:57,18.88,34.13,29.38,23.5,21.94,12.13
2017-02-20T14:35:30,18.88,34.19,29.31,23.5,21.94,12.13
2017-02-20T14:36:04,18.81,34.25,29.31,23.5,22.06,12.13
2017-02-20T14:36:37,18.81,34.25,29.38,23.5,22.06,12.13
2017-02-20T14:37:11,18.81,34.25,29.44,23.5,22.06,12.13
2017-02-20T14:37:45,18.81,34.31,29.5,23.56,22,12.13
2017-02-20T14:38:18,18.81,34.31,29.56,23.63,21.94,12.13
2017-02-20T14:38:52,18.75,34.31,29.56,23.63,21.88,12.13
2017-02-20T14:39:26,18.69,34.31,29.56,23.56,21.94,12.13
2017-02-20T14:39:59,18.69,34.31,29.63,23.63,21.81,12.13
2017-02-20T14:40:33,18.63,34.31,29.75,23.56,21.81,12.06
2017-02-20T14:41:07,18.63,34.31,29.75,23.63,21.81,12.13
2017-02-20T14:41:40,18.63,34.25,29.81,23.63,21.75,12.06
2017-02-20T14:42:14,18.63,34.25,29.75,23.63,21.75,12.06
2017-02-20T14:42:47,18.63,34.25,29.94,23.63,21.81,12.06
2017-02-20T14:43:21,18.56,34.25,29.94,23.69,21.75,12.06
2017-02-20T14:43:55,18.56,34.25,30,23.63,21.81,12.06
2017-02-20T14:44:28,18.56,34.31,30.06,23.69,21.81,12.06
2017-02-20T14:45:02,18.56,34.31,30.06,23.75,21.94,12.06
2017-02-20T14:45:36,18.19,34.31,30,23.81,21.88,12.06
2017-02-20T14:46:09,18.38,34.31,30.06,23.81,21.88,12.06
2017-02-20T14:46:43,18.5,34.31,30.06,23.81,21.94,12.06
2017-02-20T14:47:16,18.63,34.38,30.06,23.75,21.94,12.06
2017-02-20T14:47:50,18.63,34.38,30,23.75,21.81,12.06
2017-02-20T14:48:24,18.69,34.38,29.94,23.75,21.81,12.06
2017-02-20T14:48:57,18.75,34.31,30,23.81,21.75,12
2017-02-20T14:49:31,18.75,34.38,30,23.81,21.69,12
2017-02-20T14:50:05,18.81,34.31,30,23.81,21.69,12
2017-02-20T14:50:38,18.88,34.31,30,23.88,21.69,12
2017-02-20T14:51:12,18.88,34.31,30,23.88,21.63,12
2017-02-20T14:51:46,18.88,34.31,29.94,23.81,21.56,12
2017-02-20T14:52:19,18.88,34.31,29.94,23.75,21.63,12
2017-02-20T14:52:53,18.94,34.31,29.94,23.75,21.69,12
2017-02-20T14:53:26,19,34.31,29.94,23.75,21.69,12
2017-02-20T14:54:00,19.06,34.25,30,23.69,21.69,12
2017-02-20T14:54:34,19.06,34.25,30,23.75,21.69,12
2017-02-20T14:55:07,19,34.31,30,23.81,21.69,12
2017-02-20T14:55:41,19,34.25,30,23.81,21.69,12
2017-02-20T14:56:15,18.94,34.25,30.06,23.81,21.69,12
2017-02-20T14:56:48,18.94,34.25,30.06,23.81,21.69,12
2017-02-20T14:57:22,18.88,34.25,30.06,23.75,21.63,12
2017-02-20T14:57:55,18.94,34.25,30,23.75,21.63,12
2017-02-20T14:58:29,18.94,34.25,30.06,23.69,21.56,12
2017-02-20T14:59:03,19,34.25,29.94,23.69,21.5,12
2017-02-20T14:59:36,19,34.25,29.88,23.69,21.56,12
2017-02-20T15:00:10,19,34.25,30,23.63,21.56,12
2017-02-20T15:00:44,19,34.19,30.06,23.63,21.5,11.94
2017-02-20T15:01:17,19,34.19,30,23.63,21.5,11.94
2017-02-20T15:01:51,19,34.19,30.06,23.63,21.44,12
2017-02-20T15:02:24,19.13,34.13,30.13,23.63,21.44,12
2017-02-20T15:02:58,19.13,34.19,30.19,23.63,21.38,12
2017-02-20T15:03:32,19.19,34.13,30.19,23.63,21.38,11.94
2017-02-20T15:04:05,19.31,34.19,30.06,23.63,21.38,11.94
2017-02-20T15:04:39,19.31,34.19,29.94,23.63,21.44,11.94
2017-02-20T15:05:13,19.38,34.19,29.94,23.63,21.38,11.94
2017-02-20T15:05:46,19.38,34.25,29.94,23.63,21.38,11.94
2017-02-20T15:06:20,19.38,34.25,29.94,23.63,21.38,11.94
2017-02-20T15:06:53,19.44,34.25,29.94,23.63,21.38,11.94
2017-02-20T15:07:27,19.44,34.25,29.94,23.63,21.31,11.94
2017-02-20T15:08:01,19.44,34.31,29.94,23.63,21.31,11.94
2017-02-20T15:08:34,19.5,34.25,30,23.69,21.38,11.94
2017-02-20T15:09:08,19.63,34.25,30.06,23.81,21.38,11.94
2017-02-20T15:09:42,19.69,34.25,30.06,23.94,21.38,11.94
2017-02-20T15:10:15,19.69,34.31,30.06,24,21.31,11.94
2017-02-20T15:10:49,19.69,34.31,30.19,24,21.31,11.94
2017-02-20T15:11:22,19.69,34.38,30.13,23.94,21.38,11.94
2017-02-20T15:11:56,19.69,34.31,30.19,23.94,21.38,11.94
2017-02-20T15:12:30,19.69,34.31,30.19,23.94,21.38,11.94
2017-02-20T15:13:03,19.69,34.31,30.25,23.94,21.38,11.94
2017-02-20T15:13:37,19.69,34.31,30.19,23.94,21.38,11.88
2017-02-20T15:14:11,19.69,34.31,30.06,23.94,21.31,11.88
2017-02-20T15:14:44,19.75,34.38,30.06,23.94,21.31,11.88
2017-02-20T15:15:18,19.81,34.38,30.06,23.88,21.31,11.88
2017-02-20T15:15:51,19.81,34.38,30.06,23.88,21.31,11.88
2017-02-20T15:16:25,19.81,34.38,30.13,23.88,21.31,11.88
2017-02-20T15:16:59,19.88,34.44,30.19,23.88,21.31,11.88
2017-02-20T15:17:32,19.88,34.44,30.19,23.81,21.38,11.88
2017-02-20T15:18:06,19.94,34.44,30.31,23.81,21.38,11.88
2017-02-20T15:18:40,19.94,34.5,30.38,23.81,21.31,11.88
2017-02-20T15:19:13,19.94,34.44,30.38,23.75,21.38,11.88
2017-02-20T15:19:47,19.88,34.44,30.31,23.75,21.31,11.88
2017-02-20T15:20:20,19.88,34.44,30.31,23.75,21.31,11.88
2017-02-20T15:20:54,19.88,34.44,30.25,23.88,21.31,11.88
2017-02-20T15:21:28,19.88,34.44,30.31,23.88,21.31,11.94
2017-02-20T15:22:01,19.88,34.44,30.31,23.88,21.25,11.81
2017-02-20T15:22:35,19.88,34.44,30.25,23.88,21.31,11.88
2017-02-20T15:23:09,19.94,34.38,30.19,23.81,21.25,11.81
2017-02-20T15:23:42,19.94,34.38,30.19,23.81,21.25,11.81
2017-02-20T15:24:16,19.94,34.44,30.13,23.81,21.19,11.81
2017-02-20T15:24:49,19.94,34.38,30.13,23.81,21.19,11.81
2017-02-20T15:25:23,19.94,34.38,30.25,23.81,21.19,11.81
2017-02-20T15:25:57,19.94,34.44,30.31,23.75,21.19,11.81
2017-02-20T15:26:30,19.94,34.5,30.31,23.81,21.19,11.81
2017-02-20T15:27:04,19.94,34.5,30.25,23.81,21.19,11.81
2017-02-20T15:27:38,19.88,34.5,30.19,23.81,21.19,11.81
2017-02-20T15:28:11,19.88,34.5,30.19,23.81,21.19,11.81
2017-02-20T15:28:45,19.88,34.5,30.25,23.88,21.19,11.81
2017-02-20T15:29:18,19.81,34.5,30.25,23.81,21.19,11.81
2017-02-20T15:29:52,19.88,34.5,30.31,23.88,21.19,11.81
2017-02-20T15:30:26,19.94,34.5,30.38,23.81,21.19,11.81
2017-02-20T15:30:59,19.94,34.5,30.38,23.81,21.19,11.81
2017-02-20T15:31:33,20,34.5,30.38,23.81,21.19,11.81
2017-02-20T15:32:07,20.06,34.5,30.38,23.81,21.19,11.81
2017-02-20T15:32:40,20.13,34.5,30.44,23.75,21.13,11.75
2017-02-20T15:33:14,20.13,34.5,30.38,23.75,21.13,11.75
2017-02-20T15:33:47,20.13,34.38,30.38,23.81,21.13,11.75
2017-02-20T15:34:21,20.13,34.38,30.38,23.75,21.13,11.75
2017-02-20T15:34:55,20.13,34.44,30.38,23.75,21.13,11.75
2017-02-20T15:35:28,20.13,34.44,30.38,23.75,21.13,11.75
2017-02-20T15:36:02,20.13,34.44,30.38,23.75,21.13,11.75
2017-02-20T15:36:36,20.13,34.44,30.38,23.75,21.13,11.75
2017-02-20T15:37:09,20.13,34.44,30.44,23.75,21.13,11.75
2017-02-20T15:37:43,20.13,34.56,30.56,23.75,21.13,11.75
2017-02-20T15:38:16,20.13,34.63,30.56,23.75,21.13,11.69
2017-02-20T15:38:50,20.13,34.63,30.63,23.75,21.13,11.69
2017-02-20T15:39:24,20.13,34.63,30.63,23.75,21.13,11.75
2017-02-20T15:39:57,20.06,34.63,30.56,23.75,21.13,11.69
2017-02-20T15:40:31,20.06,34.63,30.63,23.75,21.13,11.69
2017-02-20T15:41:05,20.13,34.63,30.56,23.75,21.13,11.69
2017-02-20T15:41:38,20.13,34.63,30.5,23.75,21.13,11.69
2017-02-20T15:42:12,20.13,34.63,30.38,23.75,21.13,11.69
2017-02-20T15:42:45,20.13,34.63,30.38,23.75,21.13,11.69
2017-02-20T15:43:19,20.13,34.56,30.38,23.75,21.13,11.69
2017-02-20T15:43:53,20.06,34.56,30.44,23.75,21.13,11.69
2017-02-20T15:44:26,20.06,34.63,30.44,23.75,21.13,11.69
2017-02-20T15:45:00,20,34.63,30.44,23.75,21.13,11.69
2017-02-20T15:45:34,20,34.69,30.38,23.75,21.19,11.69
2017-02-20T15:46:07,19.94,34.69,30.44,23.81,21.19,11.69
2017-02-20T15:46:41,19.88,34.69,30.5,23.75,21.19,11.69
2017-02-20T15:47:14,19.81,34.69,30.5,23.81,21.19,11.63
2017-02-20T15:47:48,19.75,34.69,30.56,23.81,21.19,11.69
2017-02-20T15:48:22,19.75,34.69,30.63,23.81,21.19,11.63
2017-02-20T15:48:55,19.69,34.69,30.63,23.81,21.25,11.63
2017-02-20T15:49:29,19.69,34.69,30.56,23.88,21.25,11.63
2017-02-20T15:50:03,19.63,34.69,30.56,23.88,21.25,11.63
2017-02-20T15:50:36,19.63,34.69,30.56,23.88,21.31,11.63
2017-02-20T15:51:10,19.63,34.56,30.56,23.88,21.31,11.63
2017-02-20T15:51:43,19.56,34.63,30.56,23.88,21.31,11.63
2017-02-20T15:52:17,19.5,34.63,30.56,23.88,21.31,11.63
2017-02-20T15:52:51,19.56,34.69,30.56,23.81,21.25,11.63
2017-02-20T15:53:24,19.5,34.69,30.56,23.81,21.25,11.63
2017-02-20T15:53:58,19.5,34.69,30.5,23.81,21.25,11.63
2017-02-20T15:54:32,19.5,34.69,30.56,23.81,21.25,11.63
2017-02-20T15:55:05,19.44,34.69,30.56,23.81,21.31,11.63
2017-02-20T15:55:39,19.44,34.75,30.56,23.81,21.25,11.63
2017-02-20T15:56:12,19.44,34.75,30.5,23.88,21.25,11.63
2017-02-20T15:56:46,19.38,34.75,30.44,23.81,21.31,11.63
2017-02-20T15:57:20,19.38,34.69,30.44,23.88,21.31,11.63
2017-02-20T15:57:53,19.44,34.69,30.44,23.88,21.31,11.56
2017-02-20T15:58:27,19.44,34.63,30.44,23.88,21.31,11.63
2017-02-20T15:59:00,19.44,34.63,30.5,23.88,21.25,11.56
2017-02-20T15:59:34,19.44,34.69,30.5,23.88,21.25,11.56
2017-02-20T16:00:08,19.44,34.69,30.5,23.88,21.31,11.56
2017-02-20T16:00:41,19.5,34.69,30.56,23.88,21.31,11.56
2017-02-20T16:01:15,19.5,34.63,30.56,23.88,21.31,11.56
2017-02-20T16:01:49,19.5,34.63,30.56,23.88,21.38,11.56
2017-02-20T16:02:22,19.5,34.63,30.63,23.88,21.38,11.56
2017-02-20T16:02:56,19.5,34.56,30.63,23.94,21.38,11.56
2017-02-20T16:03:29,19.56,34.56,30.69,24,21.38,11.56
2017-02-20T16:04:03,19.56,34.56,30.75,24.06,21.38,11.56
2017-02-20T16:04:37,19.56,34.63,30.75,24.06,21.44,11.56
2017-02-20T16:05:10,19.56,34.56,30.69,24.06,21.44,11.56
2017-02-20T16:05:44,19.63,34.63,30.69,24.06,21.5,11.56
2017-02-20T16:06:18,19.63,34.63,30.63,24.06,21.5,11.56
2017-02-20T16:06:51,19.63,34.63,30.63,24.06,21.56,11.56
2017-02-20T16:07:25,19.75,34.63,30.63,24.06,21.56,11.56
2017-02-20T16:07:58,19.75,34.63,30.63,24.06,21.56,11.56
2017-02-20T16:08:32,19.88,34.63,30.63,24.13,21.56,11.56
2017-02-20T16:09:06,20.31,34.63,30.63,24.06,21.5,11.56
2017-02-20T16:09:39,20.5,34.63,30.69,24.06,21.5,11.56
2017-02-20T16:10:13,20.5,34.56,30.75,24.13,21.44,11.56
2017-02-20T16:10:46,20.44,34.56,30.81,24.13,21.44,11.56
2017-02-20T16:11:20,20.44,34.56,30.81,24.06,21.38,11.56
2017-02-20T16:11:54,20.44,34.56,30.81,24.06,21.44,11.56
2017-02-20T16:12:27,20.44,34.63,30.81,24.06,21.5,11.56
2017-02-20T16:13:01,20.38,34.63,30.81,24.06,21.44,11.56
2017-02-20T16:13:35,20.25,34.63,30.81,24.06,21.44,11.56
2017-02-20T16:14:08,20.25,34.63,30.75,24.06,21.5,11.56
2017-02-20T16:14:42,20.25,34.63,30.75,24,21.44,11.5
2017-02-20T16:15:15,20.31,34.63,30.81,24,21.44,11.5
2017-02-20T16:15:49,20.25,34.56,30.81,24,21.38,11.56
2017-02-20T16:16:23,20.25,34.56,30.94,24,21.38,11.56
2017-02-20T16:16:56,20.25,34.56,31,24,21.38,11.5
2017-02-20T16:17:30,20.25,34.56,30.94,24,21.31,11.5
2017-02-20T16:18:04,20.25,34.56,30.94,24,21.31,11.56
2017-02-20T16:18:37,20.25,34.5,31,24,21.38,11.56
2017-02-20T16:19:11,20.31,34.5,31,24,21.31,11.56
2017-02-20T16:19:44,20.25,34.5,31,24,21.31,11.5
2017-02-20T16:20:18,20.19,34.5,30.94,24,21.31,11.5
2017-02-20T16:20:52,20.19,34.44,31,24,21.31,11.5
2017-02-20T16:21:25,20.19,34.44,31,24,21.31,11.56
2017-02-20T16:21:59,20.13,34.5,31,24,21.31,11.56
2017-02-20T16:22:32,20.06,34.44,31,24,21.31,11.5
2017-02-20T16:23:06,20,34.5,30.94,24,21.31,11.5
2017-02-20T16:23:40,20.06,34.5,31,24.06,21.31,11.5
2017-02-20T16:24:13,20,34.5,31.06,24.06,21.31,11.56
2017-02-20T16:24:47,20,34.56,31,24.06,21.31,11.5
2017-02-20T16:25:21,20.13,34.56,30.88,24.06,21.31,11.5
2017-02-20T16:25:54,20.13,34.5,30.81,24.06,21.25,11.5
2017-02-20T16:26:28,20.25,34.56,30.81,24.06,21.25,11.5
2017-02-20T16:27:01,20.31,34.56,30.75,24.13,21.19,11.5
2017-02-20T16:27:35,20.38,34.56,30.69,24.06,21.19,11.5
2017-02-20T16:28:09,20.44,34.56,30.69,24.06,21.19,11.5
2017-02-20T16:28:42,20.44,34.56,30.63,24.06,21.19,11.5
2017-02-20T16:29:16,20.44,34.63,30.56,24.06,21.19,11.5
2017-02-20T16:29:49,20.44,34.63,30.56,24.06,21.13,11.5
2017-02-20T16:30:23,20.5,34.63,30.63,24.13,21.13,11.5
2017-02-20T16:30:57,20.5,34.63,30.63,24.06,21.13,11.5
2017-02-20T16:31:30,20.5,34.69,30.63,24.06,21.13,11.5
2017-02-20T16:32:04,20.5,34.69,30.69,24.06,21.13,11.5
2017-02-20T16:32:38,20.44,34.69,30.63,24.06,21.13,11.5
2017-02-20T16:33:11,20.31,34.69,30.63,24.06,21.19,11.5
2017-02-20T16:33:45,20.31,34.69,30.63,24.06,21.19,11.5
2017-02-20T16:34:18,20.25,34.69,30.75,24.06,21.13,11.5
2017-02-20T16:34:52,20.13,34.69,30.81,24.06,21.19,11.5
2017-02-20T16:35:26,20.06,34.69,30.81,24.06,21.19,11.5
2017-02-20T16:35:59,20.06,34.69,30.81,24.06,21.19,11.5
2017-02-20T16:36:33,20,34.63,30.81,24.06,21.19,11.5
2017-02-20T16:37:07,20,34.63,30.81,24.06,21.19,11.5
2017-02-20T16:37:40,19.94,34.63,30.88,24.06,21.19,11.5
2017-02-20T16:38:14,19.88,34.56,30.81,24.06,21.19,11.5
2017-02-20T16:38:47,19.81,34.56,30.81,24.06,21.19,11.5
2017-02-20T16:39:21,19.69,34.56,30.81,24.06,21.19,11.5
2017-02-20T16:39:55,19.69,34.56,30.81,24.06,21.19,11.5
2017-02-20T16:40:28,19.63,34.5,30.75,24.06,21.13,11.5
2017-02-20T16:41:02,19.63,34.44,30.69,24,21.19,11.5
2017-02-20T16:41:35,19.63,34.5,30.81,24,21.13,11.5
2017-02-20T16:42:09,19.5,34.5,30.81,24.06,21.13,11.5
2017-02-20T16:42:43,19.5,34.5,30.75,24.06,21.13,11.5
2017-02-20T16:43:16,19.5,34.56,30.75,24.06,21.13,11.5
2017-02-20T16:43:50,19.5,34.56,30.69,24.06,21.13,11.5
2017-02-20T16:44:24,19.56,34.56,30.75,24.06,21.13,11.5
2017-02-20T16:44:57,19.5,34.56,30.75,24.06,21.06,11.5
2017-02-20T16:45:31,19.5,34.5,30.75,24.06,21.13,11.5
2017-02-20T16:46:04,19.56,34.5,30.75,24.06,21.13,11.5
2017-02-20T16:46:38,19.5,34.56,30.75,24.06,21.13,11.5
2017-02-20T16:47:12,19.5,34.56,30.69,24.06,21.13,11.5
2017-02-20T16:47:45,19.5,34.56,30.69,24.06,21.19,11.5
2017-02-20T16:48:19,19.5,34.63,30.81,24.06,21.19,11.5
2017-02-20T16:48:52,19.5,34.63,30.94,24.06,21.13,11.5
2017-02-20T16:49:26,19.5,34.63,30.88,24.06,21.13,11.5
2017-02-20T16:50:00,19.5,34.56,30.88,24.06,21.13,11.5
2017-02-20T16:50:33,19.5,34.56,30.94,24.13,21.13,11.44
2017-02-20T16:51:07,19.5,34.63,31.06,24.13,21.13,11.5
2017-02-20T16:51:40,19.5,34.63,30.94,24.13,21.13,11.5
2017-02-20T16:52:14,19.5,34.56,30.88,24.13,21.13,11.44
2017-02-20T16:52:48,19.5,34.63,30.88,24.13,21.13,11.5
2017-02-20T16:53:21,19.44,34.63,30.81,24.13,21.13,11.44
2017-02-20T16:53:55,19.44,34.69,30.75,24.13,21.13,11.44
2017-02-20T16:54:29,19.38,34.69,30.75,24.13,21.13,11.44
2017-02-20T16:55:02,19.31,34.75,30.63,24.13,21.13,11.44
2017-02-20T16:55:36,19.31,34.75,30.56,24.13,21.13,11.5
2017-02-20T16:56:09,19.25,34.75,30.56,24.19,21.13,11.44
2017-02-20T16:56:43,19.19,34.69,30.56,24.19,21.13,11.44
2017-02-20T16:57:17,19.19,34.75,30.5,24.19,21.13,11.44
2017-02-20T16:57:50,19.13,34.69,30.5,24.19,21.13,11.44
2017-02-20T16:58:24,19.13,34.69,30.56,24.19,21.13,11.44
2017-02-20T16:58:57,19.06,34.75,30.56,24.19,21.13,11.44
2017-02-20T16:59:31,19.06,34.75,30.63,24.19,21.13,11.44
2017-02-20T17:00:05,19,34.69,30.75,24.19,21.19,11.44
2017-02-20T17:00:38,19,34.75,30.88,24.19,21.19,11.44
2017-02-20T17:01:12,18.94,34.75,30.88,24.19,21.19,11.44
2017-02-20T17:01:46,18.88,34.81,30.94,24.19,21.25,11.44
2017-02-20T17:02:19,18.88,34.81,30.94,24.19,21.19,11.44
2017-02-20T17:02:53,18.81,34.81,30.94,24.19,21.25,11.44
2017-02-20T17:03:26,18.75,34.81,30.94,24.25,21.25,11.44
2017-02-20T17:04:00,18.75,34.88,30.94,24.25,21.31,11.44
2017-02-20T17:04:34,18.69,34.88,30.88,24.25,21.31,11.44
2017-02-20T17:05:07,18.69,34.88,30.88,24.25,21.31,11.44
2017-02-20T17:05:41,18.63,34.88,30.88,24.25,21.31,11.44
2017-02-20T17:06:14,18.63,34.88,30.88,24.25,21.31,11.44
2017-02-20T17:06:48,18.56,34.88,30.88,24.25,21.31,11.44
2017-02-20T17:07:22,18.56,34.88,30.88,24.25,21.31,11.44
2017-02-20T17:07:55,18.5,34.81,30.88,24.25,21.31,11.44
2017-02-20T17:08:29,18.5,34.81,30.94,24.25,21.31,11.44
2017-02-20T17:09:03,18.44,34.81,31,24.31,21.31,11.44
2017-02-20T17:09:36,18.38,34.88,31,24.31,21.31,11.44
2017-02-20T17:10:10,18.38,34.88,31.06,24.31,21.31,11.44
2017-02-20T17:10:43,18.31,34.81,31.13,24.31,21.38,11.44
2017-02-20T17:11:17,18.31,34.81,31.13,24.31,21.38,11.44
2017-02-20T17:11:51,18.25,34.81,31.13,24.31,21.38,11.44
2017-02-20T17:12:24,18.31,34.75,31.13,24.31,21.38,11.44
2017-02-20T17:12:58,18.25,34.75,31.06,24.25,21.38,11.44
2017-02-20T17:13:31,18.19,34.81,30.94,24.25,21.38,11.38
2017-02-20T17:14:05,18.19,34.88,30.88,24.25,21.38,11.44
2017-02-20T17:14:39,18.13,34.88,30.88,24.25,21.38,11.38
2017-02-20T17:15:12,18.13,34.88,30.88,24.31,21.38,11.44
2017-02-20T17:15:46,18.06,34.88,30.88,24.31,21.44,11.38
2017-02-20T17:16:19,18,34.81,30.88,24.25,21.44,11.38
2017-02-20T17:16:53,18,34.81,30.88,24.25,21.38,11.38
2017-02-20T17:17:27,17.94,34.81,30.94,24.31,21.44,11.38
2017-02-20T17:18:00,17.88,34.81,30.94,24.31,21.44,11.38
2017-02-20T17:18:34,17.88,34.75,31,24.31,21.44,11.38
2017-02-20T17:19:08,17.88,34.75,31,24.31,21.44,11.38
2017-02-20T17:19:41,17.81,34.75,30.88,24.31,21.44,11.38
2017-02-20T17:20:15,17.81,34.75,30.81,24.31,21.44,11.38
2017-02-20T17:20:48,17.75,34.75,30.81,24.31,21.44,11.38
2017-02-20T17:21:22,17.75,34.81,30.81,24.31,21.44,11.38
2017-02-20T17:21:56,17.81,34.81,30.94,24.31,21.44,11.38
2017-02-20T17:22:29,18,34.88,31,24.31,21.44,11.38
2017-02-20T17:23:03,17.94,34.88,31,24.31,21.44,11.38
2017-02-20T17:23:36,17.94,34.81,31.06,24.38,21.44,11.38
2017-02-20T17:24:10,17.88,34.81,31.06,24.38,21.44,11.38
2017-02-20T17:24:44,17.88,34.81,31.13,24.38,21.44,11.38
2017-02-20T17:25:17,17.88,34.81,31.13,24.38,21.44,11.38
2017-02-20T17:25:51,17.94,34.75,31.25,24.38,21.38,11.38
2017-02-20T17:26:24,17.88,34.75,31.31,24.38,21.44,11.38
2017-02-20T17:26:58,17.81,34.81,31.38,24.38,21.44,11.38
2017-02-20T17:27:32,17.81,34.81,31.44,24.38,21.44,11.38
2017-02-20T17:28:05,17.75,34.81,31.38,24.38,21.44,11.38
2017-02-20T17:28:39,17.75,34.81,31.44,24.38,21.44,11.38
2017-02-20T17:29:13,17.69,34.81,31.38,24.38,21.44,11.38
2017-02-20T17:29:46,17.69,34.81,31.38,24.38,21.44,11.38
2017-02-20T17:30:20,17.63,34.81,31.38,24.38,21.44,11.38
2017-02-20T17:30:53,17.63,34.75,31.38,24.38,21.38,11.38
2017-02-20T17:31:27,17.56,34.75,31.25,24.38,21.38,11.38
2017-02-20T17:32:01,17.5,34.75,31.13,24.38,21.38,11.38
2017-02-20T17:32:34,17.5,34.75,31.13,24.44,21.44,11.38
2017-02-20T17:33:08,17.44,34.75,31.13,24.44,21.44,11.31
2017-02-20T17:33:41,17.38,34.75,31.19,24.44,21.44,11.31
2017-02-20T17:34:15,17.31,34.75,31.19,24.44,21.44,11.31
2017-02-20T17:34:49,17.31,34.75,31.19,24.44,21.5,11.38
2017-02-20T17:35:22,17.25,34.75,31.25,24.44,21.44,11.38
2017-02-20T17:35:56,17.19,34.81,31.25,24.44,21.5,11.38
2017-02-20T17:36:29,17.19,34.81,31.31,24.44,21.5,11.38
2017-02-20T17:37:03,17.19,34.81,31.25,24.44,21.5,11.38
2017-02-20T17:37:37,17.13,34.81,31.25,24.44,21.56,11.31
2017-02-20T17:38:10,17.13,34.81,31.25,24.44,21.5,11.31
2017-02-20T17:38:44,17.13,34.81,31.25,24.44,21.56,11.38
2017-02-20T17:39:18,17.13,34.81,31.31,24.44,21.5,11.38
2017-02-20T17:39:51,17.06,34.81,31.38,24.44,21.5,11.38
2017-02-20T17:40:25,17.06,34.81,31.31,24.44,21.5,11.38
2017-02-20T17:40:58,17.06,34.81,31.31,24.44,21.5,11.31
2017-02-20T17:41:32,17.13,34.81,31.31,24.44,21.44,11.38
2017-02-20T17:42:06,17.13,34.81,31.31,24.44,21.44,11.31
2017-02-20T17:42:39,17.13,34.81,31.25,24.44,21.44,11.38
2017-02-20T17:43:13,17.19,34.81,31.25,24.44,21.44,11.31
2017-02-20T17:43:46,17.19,34.88,31.25,24.44,21.44,11.31
2017-02-20T17:44:20,17.19,34.88,31.25,24.5,21.44,11.31
2017-02-20T17:44:54,17.19,34.88,31.25,24.5,21.38,11.31
2017-02-20T17:45:27,17.19,34.94,31.25,24.5,21.38,11.31
2017-02-20T17:46:01,17.25,34.88,31.19,24.44,21.38,11.31
2017-02-20T17:46:34,17.25,34.94,31.06,24.5,21.38,11.31
2017-02-20T17:47:08,17.25,34.88,31,24.5,21.38,11.31
2017-02-20T17:47:42,17.25,34.88,30.94,24.5,21.38,11.31
2017-02-20T17:48:15,17.25,34.94,30.94,24.5,21.38,11.31
2017-02-20T17:48:49,17.25,34.94,30.94,24.5,21.38,11.31
2017-02-20T17:49:22,17.25,35,31,24.5,21.38,11.31
2017-02-20T17:49:56,17.25,35,31.06,24.5,21.38,11.31
2017-02-20T17:50:30,17.25,35.06,31.06,24.5,21.38,11.31
2017-02-20T17:51:03,17.25,35.06,31.06,24.5,21.31,11.31
2017-02-20T17:51:37,17.25,35.06,31.13,24.5,21.38,11.31
2017-02-20T17:52:11,17.25,35.06,31.19,24.5,21.38,11.31
2017-02-20T17:52:44,17.31,35.06,31.31,24.5,21.38,11.31
2017-02-20T17:53:18,17.25,35.06,31.38,24.5,21.31,11.25
2017-02-20T17:53:51,17.25,35.06,31.44,24.5,21.31,11.25
2017-02-20T17:54:25,17.25,35.06,31.56,24.5,21.31,11.31
2017-02-20T17:54:59,17.25,35.06,31.5,24.5,21.31,11.25
2017-02-20T17:55:32,17.25,35.06,31.56,24.5,21.31,11.25
2017-02-20T17:56:06,17.25,35.13,31.5,24.5,21.31,11.25
2017-02-20T17:56:39,17.25,35.13,31.5,24.5,21.31,11.25
2017-02-20T17:57:13,17.25,35.06,31.5,24.5,21.31,11.25
2017-02-20T17:57:47,17.25,35.13,31.5,24.5,21.31,11.25
2017-02-20T17:58:20,17.25,35.13,31.56,24.5,21.31,11.25
2017-02-20T17:58:54,17.25,35.06,31.56,24.5,21.31,11.25
2017-02-20T17:59:27,17.25,35.06,31.56,24.5,21.31,11.25
2017-02-20T18:00:01,17.25,35.13,31.63,24.5,21.31,11.25
2017-02-20T18:00:35,17.25,35.06,31.63,24.5,21.25,11.25
2017-02-20T18:01:08,17.25,35.13,31.75,24.5,21.25,11.25
2017-02-20T18:01:42,17.25,35.19,31.75,24.5,21.25,11.25
2017-02-20T18:02:15,17.25,35.19,31.75,24.5,21.25,11.25
2017-02-20T18:02:49,17.25,35.19,31.69,24.5,21.25,11.25
2017-02-20T18:03:23,17.25,35.19,31.69,24.56,21.25,11.25
2017-02-20T18:03:56,17.25,35.19,31.69,24.56,21.25,11.25
2017-02-20T18:04:30,17.25,35.19,31.63,24.56,21.25,11.25
2017-02-20T18:05:04,17.25,35.13,31.63,24.56,21.25,11.19
2017-02-20T18:05:37,17.31,35.19,31.69,24.56,21.19,11.19
2017-02-20T18:06:11,17.31,35.13,31.63,24.63,21.19,11.19
2017-02-20T18:06:44,17.31,35.13,31.69,24.63,21.19,11.19
2017-02-20T18:07:18,17.31,35.13,31.69,24.63,21.19,11.19
2017-02-20T18:07:52,17.38,35.13,31.63,24.63,21.19,11.19
2017-02-20T18:08:25,17.31,35.13,31.56,24.63,21.19,11.19
2017-02-20T18:08:59,17.31,35.13,31.56,24.63,21.19,11.19
2017-02-20T18:09:32,17.31,35.13,31.5,24.63,21.19,11.19
2017-02-20T18:10:06,17.31,35.13,31.5,24.63,21.13,11.13
2017-02-20T18:10:40,17.38,35.13,31.5,24.56,21.13,11.13
2017-02-20T18:11:13,17.38,35.13,31.56,24.63,21.13,11.13
2017-02-20T18:11:47,17.38,35.13,31.56,24.63,21.13,11.13
2017-02-20T18:12:20,17.38,35.19,31.56,24.63,21.13,11.13
2017-02-20T18:12:54,17.31,35.19,31.5,24.63,21.13,11.13
2017-02-20T18:13:28,17.31,35.25,31.56,24.63,21.13,11.13
2017-02-20T18:14:01,17.25,35.25,31.69,24.63,21.06,11.13
2017-02-20T18:14:35,17.25,35.25,31.75,24.63,21.06,11.13
2017-02-20T18:15:08,17.25,35.25,31.81,24.63,21.06,11.06
2017-02-20T18:15:42,17.19,35.25,31.81,24.63,21.13,11.13
2017-02-20T18:16:16,17.19,35.31,31.75,24.63,21.13,11.13
2017-02-20T18:16:49,17.19,35.25,31.75,24.56,21.19,11.06
2017-02-20T18:17:23,17.19,35.25,31.63,24.63,21.19,11.06
2017-02-20T18:17:56,17.19,35.25,31.56,24.63,21.25,11.06
2017-02-20T18:18:30,17.19,35.25,31.56,24.63,21.31,11.06